Temp
-11 -11 -11 -11 -11 -11 -10 -9 -10 -12 -12 -11 -11 -11 -11 -11 -12 -12 -12 -12 -12 -12 -12 -13 -13 -12 -12 -13 -13 -13 -13 -13
-11 -11 -11 -11 -11 -11 -11 -9 -10 -12 -12 -12 -12 -12 -12 -11 -12 -13 -13 -12 -13 -13 -13 -13 -13 -12 -12 -13 -13 -12 -14 -13
-11 -11 -11 -11 -11 -11 -11 -10 -10 -12 -12 -12 -12 -12 -12 -12 -12 -13 -13 -13 -13 -13 -13 -13 -13 -12 -12 -12 -13 -13 -13 -13
-11 -11 -11 -11 -10 -10 -11 -10 -10 -10 -12 -12 -12 -12 -12 -12 -13 -13 -13 -13 -13 -13 -13 -13 -13 -12 -12 -12 -13 -13 -13 -12
-11 -11 -11 -11 -11 -10 -10 -11 -11 -10 -12 -12 -12 -12 -13 -13 -13 -13 -13 -13 -13 -13 -13 -13 -13 -13 -12 -12 -13 -13 -13 -12
-11 -11 -11 -11 -11 -11 -11 -10 -10 -10 -11 -12 -12 -12 -13 -13 -13 -13 -14 -13 -13 -13 -13 -14 -14 -13 -13 -13 -13 -14 -13 -13
-11 -11 -11 -11 -11 -11 -11 -11 -10 -11 -11 -13 -13 -13 -13 -13 -14 -14 -14 -14 -13 -14 -13 -14 -14 -13 -13 -13 -13 -13 -14 -13
-12 -12 -11 -11 -11 -11 -11 -11 -10 -10 -11 -12 -13 -13 -13 -13 -14 -14 -14 -14 -13 -14 -13 -14 -14 -13 -13 -13 -13 -13 -13 -13
-12 -12 -12 -11 -11 -11 -11 -11 -11 -11 -12 -12 -13 -12 -13 -13 -14 -14 -14 -14 -13 -14 -13 -14 -14 -13 -13 -12 -12 -13 -13 -14
-13 -12 -12 -12 -12 -11 -11 -12 -12 -11 -12 -12 -13 -13 -14 -14 -14 -14 -14 -14 -14 -14 -14 -14 -13 -13 -13 -13 -13 -13 -13 -14
-13 -13 -12 -12 -12 -12 -12 -12 -12 -12 -12 -12 -13 -13 -14 -15 -14 -14 -14 -14 -14 -14 -14 -14 -14 -13 -13 -13 -13 -13 -14 -13
-14 -13 -13 -12 -12 -12 -12 -12 -12 -12 -12 -13 -14 -15 -15 -15 -15 -15 -15 -14 -14 -14 -14 -14 -14 -14 -13 -13 -13 -13 -13 -13
-14 -13 -13 -13 -12 -12 -12 -13 -13 -13 -14 -14 -15 -15 -15 -15 -15 -15 -15 -15 -15 -14 -14 -14 -14 -14 -14 -14 -13 -13 -13 -14
-15 -14 -13 -13 -13 -12 -13 -13 -13 -14 -14 -15 -15 -15 -15 -16 -15 -15 -16 -15 -15 -15 -15 -14 -14 -14 -14 -14 -14 -14 -14 -14
-14 -14 -14 -13 -13 -13 -13 -14 -14 -14 -15 -15 -15 -16 -16 -15 -15 -15 -15 -15 -15 -15 -15 -15 -14 -14 -14 -14 -14 -14 -14 -14
-14 -15 -14 -14 -14 -14 -14 -14 -14 -15 -15 -15 -16 -16 -16 -15 -15 -15 -15 -15 -15 -15 -15 -15 -14 -14 -14 -14 -14 -14 -14 -14
-15 -15 -15 -15 -15 -14 -14 -14 -15 -15 -15 -15 -15 -15 -15 -15 -15 -15 -15 -15 -15 -15 -15 -15 -14 -14 -14 -14 -14 -14 -14 -14
-16 -16 -15 -15 -15 -14 -14 -15 -15 -16 -17 -16 -16 -15 -15 -15 -15 -15 -15 -15 -15 -15 -15 -15 -15 -15 -15 -15 -15 -14 -14 -14
-17 -16 -15 -15 -15 -15 -15 -15 -15 -16 -16 -16 -16 -16 -15 -15 -15 -15 -15 -14 -15 -15 -15 -14 -14 -14 -15 -16 -15 -15 -15 -14
Height
5733 5738 5742 5744 5747 5748 5747 5750 5758 5757 5756 5757 5758 5759 5760 5761 5761 5760 5759 5757 5756 5755 5755 5754 5752 5750 5748 5746 5746 5746 5747 5748
5725 5727 5732 5735 5737 5739 5737 5742 5748 5750 5748 5749 5750 5752 5753 5753 5754 5755 5755 5752 5750 5749 5750 5749 5747 5745 5743 5740 5739 5739 5740 5741
5715 5717 5721 5726 5728 5729 5729 5733 5737 5742 5742 5742 5742 5743 5746 5745 5748 5747 5748 5747 5745 5744 5745 5743 5741 5740 5737 5735 5733 5733 5731 5734
5704 5709 5712 5714 5718 5721 5722 5723 5728 5732 5734 5733 5734 5736 5740 5738 5741 5741 5742 5742 5740 5739 5739 5738 5736 5735 5732 5729 5728 5728 5726 5729
5694 5699 5703 5705 5708 5710 5711 5714 5715 5721 5724 5725 5725 5729 5731 5730 5732 5736 5735 5736 5735 5733 5733 5732 5730 5730 5728 5725 5724 5724 5722 5724
5686 5690 5693 5696 5698 5700 5701 5701 5705 5707 5713 5716 5717 5720 5722 5723 5724 5729 5729 5731 5729 5728 5727 5728 5725 5725 5724 5721 5720 5720 5719 5719
5675 5680 5684 5687 5689 5689 5691 5692 5692 5698 5702 5706 5707 5710 5713 5715 5717 5722 5723 5724 5724 5722 5722 5722 5720 5719 5719 5718 5716 5716 5718 5715
5668 5671 5673 5676 5679 5680 5681 5682 5683 5687 5692 5696 5697 5700 5703 5706 5710 5715 5717 5717 5717 5717 5717 5715 5715 5713 5713 5713 5712 5713 5714 5715
5656 5659 5663 5666 5667 5671 5672 5674 5674 5676 5682 5686 5687 5690 5695 5697 5703 5708 5711 5711 5710 5710 5712 5710 5709 5708 5707 5707 5708 5708 5709 5712
5646 5649 5652 5655 5657 5660 5663 5664 5666 5668 5672 5675 5678 5681 5686 5689 5696 5699 5703 5707 5703 5705 5707 5706 5706 5704 5703 5703 5704 5705 5706 5707
5635 5638 5641 5644 5647 5650 5652 5655 5656 5659 5662 5665 5669 5672 5676 5681 5687 5692 5695 5700 5699 5698 5700 5700 5700 5701 5699 5700 5701 5701 5702 5703
5627 5628 5631 5633 5637 5640 5642 5644 5645 5648 5651 5657 5659 5664 5668 5673 5680 5684 5688 5691 5692 5693 5695 5695 5697 5697 5696 5696 5697 5698 5698 5698
5618 5620 5621 5624 5627 5630 5632 5635 5638 5641 5644 5646 5649 5655 5660 5664 5671 5674 5681 5683 5684 5686 5689 5689 5692 5693 5692 5692 5694 5695 5695 5695
5610 5611 5613 5615 5618 5620 5623 5625 5628 5632 5634 5637 5641 5646 5651 5656 5662 5668 5673 5675 5678 5680 5681 5683 5685 5687 5688 5687 5688 5690 5691 5691
5603 5604 5605 5607 5610 5613 5615 5618 5621 5624 5627 5630 5635 5639 5644 5648 5654 5661 5665 5668 5671 5672 5675 5676 5678 5680 5681 5683 5684 5685 5686 5686
5596 5598 5598 5599 5603 5605 5608 5611 5614 5618 5621 5624 5628 5633 5637 5640 5648 5653 5656 5661 5664 5665 5667 5668 5670 5672 5676 5678 5679 5680 5680 5680
5591 5591 5593 5593 5595 5598 5599 5602 5605 5610 5615 5618 5621 5624 5628 5632 5641 5644 5647 5652 5655 5657 5659 5661 5663 5667 5668 5670 5672 5672 5672 5673
5585 5586 5587 5588 5589 5589 5589 5593 5597 5600 5605 5610 5616 5618 5622 5625 5632 5635 5638 5642 5646 5648 5651 5653 5656 5658 5659 5661 5662 5662 5663 5665
5581 5581 5581 5582 5582 5582 5578 5582 5587 5592 5597 5603 5607 5612 5615 5618 5622 5626 5629 5632 5636 5638 5641 5643 5647 5646 5645 5649 5651 5651 5654 5656
Wind_Speed
48 46 45 45 42 40 41 40 29 36 40 42 42 39 36 32 32 32 29 26 26 28 26 26 27 25 26 27 27 28 32 26
45 47 45 43 42 42 46 41 33 33 38 41 42 41 39 35 34 34 32 28 26 28 27 27 25 25 26 27 26 30 35 34
44 46 45 43 44 46 47 40 36 32 37 41 44 44 40 39 33 36 34 31 27 27 26 27 24 24 25 26 25 31 28 35
46 44 44 48 48 48 47 45 38 35 36 41 45 45 40 41 34 33 35 33 27 27 25 27 25 23 23 25 22 26 26 38
48 47 48 49 48 47 47 46 46 39 38 39 43 41 41 42 38 29 33 32 27 27 25 27 24 23 22 20 21 24 21 41
47 48 48 48 49 49 48 49 44 42 35 36 40 41 42 42 40 29 34 29 27 26 27 25 23 22 19 21 22 24 15 34
52 50 49 48 46 47 47 48 48 41 38 35 37 39 41 41 39 29 33 30 25 25 27 26 23 22 20 19 19 18 12 10
46 44 44 44 42 43 44 46 48 44 37 35 37 38 40 41 37 29 32 29 25 24 26 26 23 23 19 19 19 18 18 10
46 45 44 43 43 42 44 45 46 45 38 37 36 40 38 40 33 30 32 27 26 23 25 23 22 21 18 17 19 16 19 20
39 41 42 41 41 42 44 45 45 46 42 40 37 38 38 40 28 32 33 25 26 23 25 21 20 16 14 12 13 13 14 18
36 37 37 39 40 41 41 43 46 46 45 42 39 38 37 35 31 32 31 24 25 25 26 20 20 15 13 14 15 15 14 14
32 35 35 37 37 38 38 38 38 41 42 34 36 35 36 34 32 36 27 26 24 26 26 22 20 18 13 13 13 12 12 13
31 32 33 34 35 36 33 32 32 34 32 35 36 35 37 36 38 41 22 25 25 25 26 23 22 20 17 15 14 14 12 12
28 29 32 31 31 34 32 33 32 29 32 34 37 37 39 41 44 34 22 24 25 27 27 24 24 24 20 16 16 16 16 16
27 29 31 30 28 31 33 34 32 33 35 35 36 40 43 47 45 30 27 26 25 29 30 29 27 26 26 22 18 17 17 18
25 28 31 33 28 29 31 34 34 35 36 38 40 43 47 48 41 30 26 27 27 28 29 32 32 30 29 27 24 22 22 22
24 27 29 30 30 31 33 36 40 40 40 42 45 49 51 51 41 36 38 36 32 33 31 30 32 31 31 31 31 31 31 31
22 24 23 26 30 31 38 38 41 45 46 46 43 45 51 47 40 39 41 39 38 36 34 30 30 32 34 35 36 37 37 36
14 15 19 18 17 26 40 36 40 45 47 48 48 48 46 50 43 43 42 38 42 40 37 34 34 41 41 39 41 41 39 38
Wind_Direction
255 259 259 262 264 264 263 262 258 262 267 271 273 276 280 278 280 281 283 283 282 281 282 288 287 290 281 274 270 261 277 234
257 255 256 260 261 262 264 264 263 256 262 267 270 272 277 279 279 280 280 279 280 280 285 289 285 286 281 275 268 261 279 220
254 258 258 258 262 263 265 264 259 253 257 262 264 267 273 275 279 280 281 280 281 279 286 288 284 285 279 278 272 257 280 207
252 251 258 263 261 260 264 266 260 257 255 257 261 265 270 273 275 278 280 279 280 278 285 289 282 284 282 281 268 250 263 213
246 248 254 258 261 262 263 264 266 260 256 257 260 263 264 269 272 275 274 277 279 278 285 289 280 282 287 280 265 260 268 215
249 250 254 256 259 262 265 266 261 262 258 257 259 259 260 264 271 271 272 273 278 276 283 285 279 277 281 281 269 265 287 225
249 251 254 258 260 260 261 263 266 261 258 254 254 254 255 259 265 267 268 270 270 272 279 284 276 276 275 274 270 268 262 233
253 257 255 255 255 258 259 261 262 260 253 249 252 249 251 255 260 264 263 267 268 267 276 283 276 275 277 268 270 255 239 234
251 254 254 253 254 255 257 256 258 259 251 248 246 249 247 253 256 259 259 262 261 263 269 280 279 274 276 263 258 245 243 228
251 253 254 254 254 253 251 253 254 257 252 250 246 249 245 250 251 254 255 252 257 255 263 273 273 270 268 251 240 238 238 240
252 252 251 249 249 251 251 252 253 255 254 250 247 243 239 243 243 250 250 248 249 252 259 269 273 262 256 249 246 241 245 242
248 250 248 249 250 252 254 254 251 252 253 246 240 234 236 237 238 244 241 250 244 244 252 257 266 258 248 248 250 244 237 240
249 251 253 252 252 253 252 252 252 252 242 234 228 226 229 232 234 239 230 247 244 243 245 252 254 259 245 242 244 252 248 241
250 257 256 256 256 252 251 252 255 243 234 227 226 224 227 232 235 228 224 244 243 242 243 248 251 253 251 237 241 247 253 254
253 256 261 262 257 256 249 251 249 240 232 228 226 225 229 233 238 222 230 238 246 244 244 246 249 251 250 248 240 239 240 245
256 255 260 262 259 257 249 245 242 235 232 230 227 230 234 242 239 226 225 237 246 244 247 250 248 249 251 251 251 250 248 244
264 260 260 269 266 263 252 241 237 230 231 234 236 236 236 239 235 233 242 242 244 245 248 252 254 251 250 248 246 245 245 246
273 274 272 267 266 268 256 245 234 225 229 236 235 236 239 240 237 239 248 246 244 248 250 252 254 252 253 250 245 245 246 246
290 288 278 277 269 250 229 228 233 224 225 229 238 241 248 256 238 244 246 241 241 246 247 251 266 269 258 241 242 243 246 248